Tracking 31023 objects as of 19-Jul-2025
HD Live streaming from Space Station
objects crossing your sky now

STARLINK-33584

Track STARLINK-33584 now!
10-day predictions
STARLINK-33584 is classified as:


NORAD ID: 62761
Int'l Code: 2025-015D
Perigee: 481.5 km
Apogee: 483.2 km
Inclination: 53.2 °
Period: 94.1 minutes
Semi major axis: 6853 km
RCS: Unknown
Launch date: January 21, 2025
Source: United States (US)
Launch site: AIR FORCE WESTERN TEST RANGE (AFWTR)
Your satellite tracking list
Your tracking list is empty




NASA's NSSDC Master Catalog

Two Line Element Set (TLE):
1 62761U 25015D   25200.72105632  .00016013  00000-0  55175-3 0  9997
2 62761  53.1592 324.5028 0001239  93.0389 267.0753 15.30191662 28813
Source of the keplerian elements: AFSPC